| time (UTC) | temp F | wind direction | speed MPH | gust MPH | rain 1hr in | rain 24hr in | rain mn in | humidity % | barometer mb |
| 20260502123046 | 41 | 291 | 13.0 | 20.0 | 0.00 | 0.03 | 0.00 | 83 | 1015.0 |
| 20260502121544 | 40 | 273 | 16.0 | 23.0 | 0.00 | 0.03 | 0.00 | 83 | 1015.0 |
| 20260502114540 | 38 | 250 | 6.0 | 12.0 | 0.00 | 0.03 | 0.00 | 85 | 1014.9 |
| 20260502113050 | 38 | 268 | 9.0 | 14.0 | 0.00 | 0.03 | 0.00 | 85 | 1014.8 |
| 20260502111546 | 39 | 248 | 11.0 | 18.0 | 0.00 | 0.03 | 0.00 | 86 | 1014.8 |
| 20260502110048 | 39 | 277 | 13.0 | 20.0 | 0.00 | 0.03 | 0.00 | 87 | 1014.7 |
| 20260502104544 | 39 | 272 | 14.0 | 21.0 | 0.00 | 0.03 | 0.00 | 87 | 1014.6 |
| 20260502103047 | 39 | 267 | 11.0 | 17.0 | 0.00 | 0.03 | 0.00 | 87 | 1014.4 |
| 20260502101603 | 40 | 280 | 15.0 | 29.0 | 0.00 | 0.03 | 0.00 | 89 | 1014.0 |
| 20260502064548 | 42 | 303 | 15.0 | 19.0 | 0.00 | 0.03 | 0.00 | 88 | 1012.8 |
| 20260502063042 | 41 | 311 | 12.0 | 21.0 | 0.00 | 0.03 | 0.00 | 92 | 1013.1 |
| 20260502061548 | 41 | 241 | 4.0 | 7.0 | 0.00 | 0.03 | 0.00 | 92 | 1013.0 |
| 20260502060049 | 41 | 234 | 4.0 | 6.0 | 0.00 | 0.03 | 0.00 | 93 | 1013.0 |
| 20260502054559 | 41 | 360 | 3.0 | 7.0 | 0.00 | 0.03 | 0.00 | 93 | 1012.9 |
| 20260502053045 | 41 | 226 | 4.0 | 9.0 | 0.00 | 0.03 | 0.00 | 93 | 1013.2 |
| 20260502051546 | 41 | 236 | 5.0 | 9.0 | 0.00 | 0.03 | 0.00 | 94 | 1013.2 |
| 20260502050049 | 40 | 240 | 6.0 | 9.0 | 0.00 | 0.03 | 0.00 | 94 | 1013.2 |
| 20260502044544 | 40 | 205 | 4.0 | 8.0 | 0.00 | 0.03 | 0.00 | 94 | 1013.1 |
| 20260502043056 | 40 | 360 | 4.0 | 8.0 | 0.00 | 0.03 | 0.00 | 94 | 1013.2 |
| 20260502041608 | 40 | 360 | 4.0 | 6.0 | 0.00 | 0.03 | 0.00 | 94 | 1013.1 |
| 20260502040051 | 40 | 208 | 4.0 | 7.0 | 0.00 | 0.03 | 0.00 | 94 | 1013.1 |
| 20260502034547 | 40 | 205 | 4.0 | 6.0 | 0.00 | 0.03 | 0.03 | 94 | 1013.1 |
| 20260502033043 | 39 | 360 | 3.0 | 5.0 | 0.00 | 0.03 | 0.03 | 94 | 1013.0 |
| 20260502031545 | 39 | 360 | 3.0 | 5.0 | 0.00 | 0.03 | 0.03 | 94 | 1013.1 |
| 20260502030058 | 39 | 360 | 3.0 | 5.0 | 0.00 | 0.03 | 0.03 | 93 | 1013.0 |
| 20260502024557 | 39 | 159 | 0.0 | 2.0 | 0.00 | 0.03 | 0.03 | 93 | 1013.2 |
| 20260502023112 | 39 | 360 | 1.0 | 2.0 | 0.00 | 0.03 | 0.03 | 93 | 1013.2 |
| 20260502021546 | 40 | 159 | 1.0 | 3.0 | 0.00 | 0.03 | 0.03 | 93 | 1013.1 |
| 20260502020046 | 40 | 159 | 1.0 | 4.0 | 0.00 | 0.03 | 0.03 | 93 | 1013.2 |
| 20260502014541 | 40 | 360 | 1.0 | 2.0 | 0.00 | 0.03 | 0.03 | 92 | 1013.1 |
| 20260502013055 | 40 | 0 | 0.0 | 0.0 | 0.00 | 0.03 | 0.03 | 92 | 1013.1 |
| 20260502011604 | 41 | 0 | 0.0 | 0.0 | 0.00 | 0.03 | 0.03 | 92 | 1012.8 |
| 20260502010045 | 41 | 0 | 0.0 | 0.0 | 0.00 | 0.03 | 0.03 | 92 | 1012.9 |
| 20260502004546 | 41 | 0 | 0.0 | 0.0 | 0.00 | 0.03 | 0.03 | 91 | 1012.7 |
| 20260502003044 | 41 | 0 | 0.0 | 0.0 | 0.00 | 0.03 | 0.03 | 91 | 1012.4 |
| 20260502001557 | 41 | 0 | 0.0 | 2.0 | 0.00 | 0.03 | 0.03 | 91 | 1012.2 |
| 20260502000058 | 41 | 360 | 1.0 | 4.0 | 0.01 | 0.03 | 0.03 | 91 | 1012.0 |
| 20260501234541 | 41 | 163 | 3.0 | 6.0 | 0.02 | 0.03 | 0.03 | 90 | 1012.0 |
| 20260501233101 | 40 | 360 | 2.0 | 3.0 | 0.02 | 0.03 | 0.03 | 89 | 1012.1 |
| 20260501231553 | 40 | 360 | 1.0 | 3.0 | 0.02 | 0.03 | 0.03 | 88 | 1012.2 |
| 20260501230114 | 41 | 280 | 2.0 | 6.0 | 0.02 | 0.02 | 0.02 | 88 | 1012.2 |
| 20260501224556 | 41 | 286 | 4.0 | 8.0 | 0.01 | 0.01 | 0.01 | 88 | 1012.2 |
| 20260501223043 | 41 | 310 | 5.0 | 8.0 | 0.01 | 0.01 | 0.01 | 88 | 1012.3 |
| 20260501221545 | 41 | 294 | 6.0 | 9.0 | 0.01 | 0.01 | 0.01 | 88 | 1012.5 |
| 20260501220046 | 41 | 360 | 6.0 | 9.0 | 0.00 | 0.00 | 0.00 | 87 | 1012.3 |
| 20260501214547 | 41 | 360 | 7.0 | 9.0 | 0.00 | 0.00 | 0.00 | 86 | 1012.3 |
| 20260501213047 | 41 | 360 | 9.0 | 11.0 | 0.00 | 0.00 | 0.00 | 85 | 1012.3 |
| 20260501211541 | 41 | 296 | 7.0 | 10.0 | 0.00 | 0.00 | 0.00 | 83 | 1012.2 |
| 20260501210045 | 41 | 360 | 7.0 | 10.0 | 0.00 | 0.00 | 0.00 | 81 | 1012.1 |
| 20260501204545 | 41 | 321 | 5.0 | 6.0 | 0.00 | 0.00 | 0.00 | 82 | 1012.1 |
| 20260501203046 | 41 | 321 | 4.0 | 5.0 | 0.00 | 0.00 | 0.00 | 83 | 1012.0 |
| 20260501201546 | 42 | 321 | 4.0 | 6.0 | 0.00 | 0.00 | 0.00 | 84 | 1012.2 |
| 20260501200047 | 42 | 321 | 4.0 | 5.0 | 0.00 | 0.00 | 0.00 | 84 | 1012.2 |
| 20260501194545 | 41 | 315 | 3.0 | 4.0 | 0.00 | 0.00 | 0.00 | 85 | 1012.2 |
| 20260501193045 | 40 | 325 | 3.0 | 5.0 | 0.00 | 0.00 | 0.00 | 85 | 1012.3 |
| 20260501191545 | 40 | 360 | 5.0 | 6.0 | 0.00 | 0.00 | 0.00 | 85 | 1012.4 |
| 20260501190044 | 41 | 360 | 5.0 | 9.0 | 0.00 | 0.00 | 0.00 | 85 | 1012.5 |
| 20260501184547 | 41 | 360 | 6.0 | 9.0 | 0.00 | 0.00 | 0.00 | 84 | 1012.7 |
| 20260501183045 | 42 | 320 | 4.0 | 8.0 | 0.00 | 0.00 | 0.00 | 83 | 1012.7 |
| 20260501181556 | 43 | 320 | 3.0 | 4.0 | 0.00 | 0.00 | 0.00 | 81 | 1012.6 |
| 20260501180049 | 42 | 320 | 1.0 | 5.0 | 0.00 | 0.00 | 0.00 | 81 | 1012.6 |
| 20260501174549 | 42 | 320 | 4.0 | 8.0 | 0.00 | 0.00 | 0.00 | 81 | 1012.8 |
| 20260501173053 | 43 | 343 | 4.0 | 5.0 | 0.00 | 0.00 | 0.00 | 79 | 1012.7 |
| 20260501171545 | 43 | 75 | 2.0 | 5.0 | 0.00 | 0.00 | 0.00 | 79 | 1012.6 |
| 20260501170047 | 42 | 75 | 3.0 | 6.0 | 0.00 | 0.00 | 0.00 | 78 | 1012.7 |
| 20260501164609 | 42 | 79 | 4.0 | 8.0 | 0.00 | 0.00 | 0.00 | 80 | 1012.7 |
| 20260501163042 | 42 | 84 | 5.0 | 8.0 | 0.00 | 0.00 | 0.00 | 79 | 1012.9 |
| 20260501161546 | 43 | 76 | 5.0 | 8.0 | 0.00 | 0.00 | 0.00 | 80 | 1013.1 |
| 20260501160046 | 43 | 81 | 5.0 | 8.0 | 0.00 | 0.00 | 0.00 | 79 | 1013.1 |
| 20260501154548 | 43 | 82 | 5.0 | 10.0 | 0.00 | 0.00 | 0.00 | 79 | 1013.0 |
| 20260501153050 | 43 | 61 | 5.0 | 11.0 | 0.00 | 0.00 | 0.00 | 80 | 1013.2 |
| 20260501151544 | 44 | 69 | 7.0 | 10.0 | 0.00 | 0.00 | 0.00 | 79 | 1013.0 |
| 20260501150047 | 44 | 66 | 5.0 | 9.0 | 0.00 | 0.00 | 0.00 | 80 | 1013.3 |
| 20260501144544 | 43 | 67 | 5.0 | 8.0 | 0.00 | 0.00 | 0.00 | 81 | 1013.3 |
| 20260501143119 | 43 | 65 | 4.0 | 6.0 | 0.00 | 0.00 | 0.00 | 82 | 1013.3 |
| 20260501141603 | 42 | 50 | 4.0 | 6.0 | 0.00 | 0.00 | 0.00 | 82 | 1013.3 |